Location: Unspecified
(0.0000°N, 0.0000°E)
Time: 14:42:58
(UTC+00:00)

Vanguard 2 Rocket - Visible Passes

Search period start: 20 July 2019 00:00
Search period end: 30 July 2019 00:00
Orbit: 554 x 3326 km, 32.9° (Epoch: 19 July)

Date Brightness Start Highest point End Pass type
(mag) Time Alt. Az. Time Alt. Az. Time Alt. Az.
20 Jul 10.5 03:25:12 16° S 03:28:45 17° S 03:40:03 10° SE visible
20 Jul 10.6 05:36:03 10° SSW 05:52:32 30° SSE 06:07:34 10° ESE visible
20 Jul 8.0 19:30:56 10° N 19:34:19 21° NE 19:35:03 20° NE visible
21 Jul 10.7 02:28:53 14° SSE 02:28:53 14° SSE 02:34:21 10° SSE visible
21 Jul 10.5 04:34:53 10° SSW 04:49:03 24° SSE 05:03:37 10° ESE visible
21 Jul 8.3 20:42:51 10° NW 20:44:45 27° NW 20:44:45 27° NW visible
22 Jul 10.4 03:38:22 16° S 03:45:25 19° SSE 03:58:10 10° SE visible
22 Jul 6.8 19:44:18 10° NW 19:48:23 45° NE 19:48:39 44° NE visible
23 Jul 10.6 02:42:04 15° SSE 02:42:04 15° SSE 02:51:36 10° SE visible
23 Jul 10.5 04:48:50 10° SSW 05:04:51 31° SSE 05:21:00 10° E visible
23 Jul 7.8 18:46:18 10° N 18:49:18 20° NE 18:52:35 11° E visible
23 Jul 9.0 20:57:32 10° WNW 20:58:24 16° W 20:58:24 16° W visible
24 Jul 10.4 03:51:35 16° SSW 04:01:36 24° SSE 04:16:22 10° ESE visible
24 Jul 6.4 19:58:26 10° WNW 20:02:21 75° WSW 20:02:21 75° WSW visible
25 Jul 10.4 02:55:20 17° S 02:58:22 18° SSE 03:10:07 10° ESE visible
25 Jul 10.3 05:02:32 10° SW 05:20:03 42° SSE 05:37:30 10° E visible
25 Jul 6.5 18:59:40 10° NW 19:03:29 47° NE 19:06:20 21° ESE visible
26 Jul 10.7 01:59:07 12° SSE 01:59:07 12° SSE 02:02:30 10° SE visible
26 Jul 10.3 04:04:55 16° SSW 04:17:08 32° SSE 04:33:51 10° E visible
26 Jul 7.7 20:13:17 10° W 20:16:09 30° SW 20:16:09 30° SW visible
27 Jul 10.3 03:08:44 20° S 03:14:16 23° SSE 03:28:35 10° ESE visible
27 Jul 10.1 05:16:12 10° SW 05:34:44 55° SE 05:53:10 10° ENE visible
27 Jul 6.2 19:13:54 10° WNW 19:17:47 65° SW 19:20:10 27° SE visible
28 Jul 10.5 02:12:35 16° SSE 02:12:35 16° SSE 02:21:35 10° ESE visible
28 Jul 10.2 04:18:23 17° SSW 04:32:04 42° SSE 04:50:23 10° E visible
28 Jul 8.8 20:29:15 10° WSW 20:30:01 13° SW 20:30:01 13° SW visible
29 Jul 10.1 03:22:16 24° S 03:29:32 31° SSE 03:46:10 10° E visible
29 Jul 9.9 05:30:01 10° SW 05:49:04 72° SE 06:08:08 10° ENE visible
29 Jul 7.6 19:28:59 10° W 19:32:21 25° SSW 19:34:03 20° S visible
